Weather History for KANB - October, 2012

Change the Weather History Date:

Wednesday, October 10, 2012

  Actual Average Record
Temperature  
Mean Temperature 61 °F 65 °F  
Max Temperature 75 °F 77 °F 90 °F (1954)
Min Temperature 46 °F 53 °F 32 °F (2000)
Degree Days  
Heating Degree Days 4    
Month to date heating degree days 37  
Since 1 July heating degree days 42  
Growing Degree Days 10 (Base 50)    
Moisture  
Dew Point 51 °F    
Average Humidity 77    
Maximum Humidity 100    
Minimum Humidity 53    
Precipitation  
Precipitation T in 0.09 in 2.51 in (1983)
Month to date precipitation 1.41 0.97  
Year to date precipitation 36.94 38.82  
Sea Level Pressure  
Sea Level Pressure 30.14 in    
Wind  
Wind Speed 3 mph (WNW)    
Max Wind Speed 14 mph    
Max Gust Speed 18 mph    
Visibility 5 miles    
Events Rain    
T = Trace of Precipitation, MM = Missing Value Source: NWS Daily Summary

Daily Weather History Graph

Daily Weather History Graph

Search for Another Location

Airport or City:

Trip Planner

Search our weather history database for the weather conditions in past years. The results will help you decide how hot, cold, wet, or windy it might be!

Date:

Astronomy

Oct. 10, 2012 Rise Set
Actual Time 6:44 AM CDT 6:15 PM CDT
Civil Twilight 6:19 AM CDT 6:40 PM CDT
Nautical Twilight 5:50 AM CDT 7:09 PM CDT
Astronomical Twilight 5:22 AM CDT 7:37 PM CDT
Moon 1:34 AM CDT (10/10) 3:04 PM CDT (10/10)
Length of Visible Light 12h 20m
Length of Day
11h 30m
Waning Crescent, 27% of the Moon is Illuminated
Oct 10
Waning Crescent
Oct 15
New
Oct 21
First Quarter
Oct 29
Full
Nov 6
Last Quarter

Hourly Weather History & Observations

Time (CDT) Temp. Dew Point Humidity Pressure Visibility Wind Dir Wind Speed Gust Speed Precip Events Conditions
12:53 AM 50.0 °F 48.9 °F 96% 30.09 in 4.0 mi Calm Calm - N/A   Clear
1:34 AM 48.2 °F 48.2 °F 100% 30.10 in 2.5 mi Calm Calm - N/A   Clear
1:46 AM 48.2 °F 48.2 °F 100% 30.11 in 3.0 mi Calm Calm - N/A   Clear
1:53 AM 48.9 °F 48.0 °F 97% 30.11 in 3.0 mi Calm Calm - N/A   Clear
2:17 AM 48.2 °F 48.2 °F 100% 30.11 in 1.8 mi Calm Calm - N/A   Clear
2:24 AM 46.4 °F 46.4 °F 100% 30.11 in 0.8 mi Calm Calm - 0.00 in Rain Light Rain
2:43 AM 46.4 °F 44.6 °F 93% 30.11 in 2.0 mi Calm Calm - 0.00 in   Partly Cloudy
2:46 AM 46.4 °F 44.6 °F 93% 30.11 in 1.0 mi Calm Calm - 0.00 in   Mist
2:53 AM 46.0 °F 45.0 °F 96% 30.11 in 0.8 mi Calm Calm - 0.00 in   Clear
2:58 AM 46.4 °F 46.4 °F 100% 30.11 in 2.5 mi Calm Calm - N/A   Clear
3:07 AM 46.4 °F 46.4 °F 100% 30.11 in 1.5 mi Calm Calm - N/A   Clear
3:11 AM 46.4 °F 46.4 °F 100% 30.11 in 3.0 mi Calm Calm - N/A   Clear
3:53 AM 46.9 °F 46.0 °F 97% 30.11 in 4.0 mi Calm Calm - N/A   Clear
4:16 AM 46.4 °F 44.6 °F 93% 30.11 in 1.8 mi Calm Calm - N/A   Clear
4:28 AM 46.4 °F 46.4 °F 100% 30.11 in 1.5 mi Calm Calm - N/A   Partly Cloudy
4:37 AM 46.4 °F 46.4 °F 100% 30.11 in 3.0 mi Calm Calm - N/A   Clear
4:53 AM 46.9 °F 46.0 °F 97% 30.12 in 3.0 mi Calm Calm - N/A   Clear
5:53 AM 46.9 °F 46.0 °F 97% 30.14 in 4.0 mi Calm Calm - N/A   Clear
6:53 AM 48.0 °F 46.9 °F 96% 30.17 in 4.0 mi Calm Calm - N/A   Overcast
7:53 AM 52.0 °F 50.0 °F 93% 30.18 in 4.0 mi Calm Calm - N/A   Overcast
8:53 AM 55.0 °F 53.1 °F 93% 30.18 in 4.0 mi Calm Calm - N/A   Overcast
9:53 AM 59.0 °F 55.0 °F 87% 30.19 in 7.0 mi WSW 5.8 mph - N/A   Overcast
10:53 AM 64.9 °F 55.0 °F 70% 30.19 in 9.0 mi SW 6.9 mph - N/A   Overcast
11:53 AM 69.1 °F 54.0 °F 58% 30.17 in 10.0 mi West 5.8 mph - N/A   Clear
12:53 PM 72.0 °F 55.9 °F 57% 30.15 in 10.0 mi NNW 6.9 mph - N/A   Scattered Clouds
1:53 PM 71.1 °F 55.9 °F 59% 30.14 in 10.0 mi Calm Calm - N/A   Overcast
2:53 PM 73.9 °F 55.9 °F 53% 30.12 in 10.0 mi Variable 6.9 mph - N/A   Clear
3:53 PM 73.0 °F 55.9 °F 55% 30.12 in 9.0 mi NW 5.8 mph - N/A   Overcast
4:53 PM 73.9 °F 55.9 °F 53% 30.11 in 9.0 mi NW 9.2 mph - N/A   Partly Cloudy
5:53 PM 71.1 °F 55.9 °F 59% 30.12 in 9.0 mi WNW 3.5 mph - N/A   Clear
6:53 PM 69.1 °F 57.0 °F 65% 30.14 in 10.0 mi NNW 4.6 mph - N/A   Overcast
7:53 PM 66.9 °F 55.0 °F 66% 30.16 in 10.0 mi North 8.1 mph - N/A   Clear
8:53 PM 61.0 °F 55.9 °F 83% 30.18 in 8.0 mi Calm Calm - N/A   Clear
9:53 PM 60.1 °F 55.9 °F 86% 30.19 in 8.0 mi South 3.5 mph - N/A   Clear
10:53 PM 60.1 °F 55.0 °F 83% 30.20 in 8.0 mi Calm Calm - N/A   Clear
11:53 PM 55.9 °F 53.1 °F 90% 30.19 in 6.0 mi Calm Calm - N/A   Clear